Overview Statistics Trail Chart Weather Telemetry Raw packets
 

This is the latest recevied weather packets stored in our database for station/object N0HOT. If no packets are shown the sender has not sent any weather packets the latest 10 day(s).

<< 31 32 33 34 35 36 37 >>
Time Temp. Humidity Pressure Rain* Wind** Luminosity Snow
1788443195 20.56° C 88% 1012.2 hPa 0 mm - 12 W/m² -
1788442891 20.56° C 88% 1012.8 hPa 0 mm - 5 W/m² -
1788442589 20.56° C 88% 1012.8 hPa 0 mm - 5 W/m² -
1788442285 20.56° C 88% 1012.2 hPa 1.27 mm - 6 W/m² -
1788441985 20.56° C 88% 1012.8 hPa 0 mm - 6 W/m² -
1788441679 20.56° C 88% 1013.2 hPa 1.78 mm - 5 W/m² -
1788441374 20.56° C 87% 1012.8 hPa 1.27 mm - 5 W/m² -
1788441073 20.56° C 87% 1013.2 hPa 1.27 mm - 5 W/m² -
1788440768 20.56° C 87% 1013.2 hPa 1.78 mm - 5 W/m² -
1788440457 20.56° C 87% 1013.2 hPa 3.56 mm - 3 W/m² -
1788440155 20.56° C 87% 1013.6 hPa 3.05 mm - 2 W/m² -
1788439850 20.56° C 87% 1013.9 hPa 4.32 mm - 2 W/m² -
1788439550 20.56° C 87% 1014.3 hPa 3.05 mm - 1 W/m² -
1788439245 20.56° C 86% 1014.6 hPa 3.05 mm - 0 W/m² -
1788438944 20.56° C 86% 1014.6 hPa 1.27 mm - 0 W/m² -
1788438643 20.56° C 86% 1013.9 hPa 1.78 mm - 0 W/m² -
1788438343 21.11° C 86% 1013.9 hPa 1.78 mm - 0 W/m² -
1788438043 21.11° C 86% 1013.6 hPa 0 mm - 0 W/m² -
1788437737 21.11° C 86% 1013.2 hPa 0 mm - 0 W/m² -
1788437433 21.11° C 86% 1013.6 hPa 0 mm - 0 W/m² -
1788437132 21.11° C 87% 1013.6 hPa 1.27 mm - 0 W/m² -
1788436827 21.11° C 87% 1013.6 hPa 1.27 mm - 0 W/m² -
1788436525 21.11° C 87% 1013.2 hPa 0 mm - 0 W/m² -
1788436220 21.11° C 87% 1013.2 hPa 0 mm - 0 W/m² -
1788435915 21.11° C 87% 1013.6 hPa 1.78 mm - 0 W/m² -

* Rain latest hour (hover to see other rain measurements)
** Current wind speed in m/s (hover to see current wind gust speed)